STARLINK-11334, 61250

Orbit data source: Space-Track

STARLINK-11334, 61250 is a payload satellite owned by SpaceX/Seattle (US) in LEO that was launched on Wed, 25 Sep 2024 UTC via an FALCON 9 launch vehicle from the Air Force Western Test Range (AFWTR). Payload-class satellites include a variety of spacecraft equipped with specific instruments for various scientific and technological missions. These include communications satellites like Starlink; space stations such as the ISS; scientific satellites like the Hubble; Earth observation satellites from companies like Planet Labs, Umbra, and HawkEye 360; GPS; miniature CubeSats for education and research; and military/defense satellites.

Loading next visibility...
Identifier
61250, 2024-175H
Orbit
LEO
Country
Flag of USUS
Related business
Manufacturer
SpaceX/Seattle
Mission
Operational Commercial Communications
Bus & Motor
STARLINK V2MD, Unknown motor
Mass
960 kg wet, ~910 kg dry
Launch date (UTC)
2024-09-25 (1 year ago)
Launch vehicle
FALCON 9
Launch site
Air Force Western Test Range (AFWTR)
Object type
Payload
Rocket body
Debris
Shape & HBR
Box + 2 Pan, 14.5 m
Radar Cross Section
36.964 m², Large (>1 m²)

Expand to show TLE details & history
Last TLE update: 10 hours ago

TLE from 10 hours ago
0 STARLINK-11334
1 61250U 24175H   25261.91668981  .02041252  00000-0  62211-2 0  9997
2 61250  53.1438 179.8558 0006393 178.5245  83.9836 15.88521120  6002
Epoch: 2025-09-18T22:00Z
TLE epoch observation values (Epoch: 2025-09-18T22:00:01.999Z)
Latitude
-52.66791°
Longitude
109.55634°
Altitude
324.249 km
Speed
7.714 km/s
True Right ascension
05h 10m 32s
True Declination
-52° 29' 28"
Sunlit
Object was in daylight at epoch
Visualization orbit readout
Latitude
Unknown
Longitude
Unknown
Altitude
Unknown
Speed
Unknown
Apparent Right ascension
Unknown
Apparent Declination
Unknown
Sunlit
N/A
Visualization observer readout
Local Sidereal Time
01:13:43
Azimuth
Unknown
Elevation
Unknown
Doppler factor
Unknown
Orbital elements
Apogee altitude
310.967 km
Perigee altitude
302.42 km
Semi-major axis
6,684.831 km
Eccentricity
0.00064
Inclination
53.1438°
RAAN
179.8558°
Arg. of periapsis
178.5245°
True anomaly
84.05646°
Mean anomaly
83.9836°
Eccentric anomaly
84.02003°
Mean motion
3.97107 °/min
Orbital period
90.66 mins
BSTAR
0.0062211
Loading maneuver chart data...
Computing Atmospheric mass density...
Loading historical data...
Loading historical data...
Loading historical data...
Loading historical data...
Loading historical data...
Loading historical data...
Loading historical data...

Documentation

Showing up to 5 results
|